Time,TemperatureF,DewpointF,PressureIn,WindDirection,WindDirectionDegrees,WindSpeedMPH,WindSpeedGustMPH,Humidity,HourlyPrecipIn,Conditions,Clouds,dailyrainin,SoftwareType,DateUTC
2013-06-02 13:34:00,61.0,42.7,29.76,SW,225,0.0,16.0,51,0.00,,,0.00,Weather View 32 v70,2013-06-02 20:34:00,
2013-06-02 13:39:00,62.0,43.1,29.76,WSW,247,7.0,16.0,50,0.00,,,0.00,Weather View 32 v70,2013-06-02 20:39:00,
2013-06-02 13:44:00,61.0,40.0,29.75,WSW,247,9.0,23.0,46,0.00,,,0.00,Weather View 32 v70,2013-06-02 20:44:00,
2013-06-02 13:49:00,61.0,38.9,29.76,SW,225,5.0,23.0,44,0.00,,,0.00,Weather View 32 v70,2013-06-02 20:49:00,
2013-06-02 13:54:00,61.0,-40.5,29.75,WSW,247,7.0,23.0,1,0.00,,,0.00,Weather View 32 v70,2013-06-02 20:54:00,
2013-06-02 13:59:00,61.0,38.9,29.75,SW,225,7.0,23.0,44,0.00,,,0.00,Weather View 32 v70,2013-06-02 20:59:00,
2013-06-02 14:04:00,61.0,42.7,29.76,SW,225,6.0,23.0,51,0.00,,,0.00,Weather View 32 v70,2013-06-02 21:04:00,
2013-06-02 14:09:00,61.0,38.9,29.75,SW,225,0.0,23.0,44,0.00,,,0.00,Weather View 32 v70,2013-06-02 21:09:00,
2013-06-02 14:14:00,61.0,38.9,29.75,WSW,247,11.0,23.0,44,0.00,,,0.00,Weather View 32 v70,2013-06-02 21:14:00,
2013-06-02 14:19:00,61.0,42.2,29.75,SW,225,9.0,23.0,50,0.00,,,0.00,Weather View 32 v70,2013-06-02 21:19:00,
2013-06-02 14:24:00,62.0,42.0,29.75,SW,225,2.0,23.0,48,0.00,,,0.00,Weather View 32 v70,2013-06-02 21:24:00,
2013-06-02 14:29:00,62.0,-39.9,29.75,SW,225,5.0,23.0,1,0.00,,,0.00,Weather View 32 v70,2013-06-02 21:29:00,
2013-06-02 14:33:00,62.0,-39.9,29.75,SW,225,5.0,23.0,1,0.00,,,0.00,Weather View 32 v70,2013-06-02 21:33:00,
2013-06-02 14:34:00,61.0,41.7,29.75,SW,225,9.0,23.0,49,0.00,,,0.00,Weather View 32 v70,2013-06-02 21:34:00,
2013-06-02 14:39:00,61.0,37.1,29.75,SW,225,7.0,23.0,41,0.00,,,0.00,Weather View 32 v70,2013-06-02 21:39:00,
2013-06-02 14:44:00,61.0,38.3,29.75,WSW,247,4.0,23.0,43,0.00,,,0.00,Weather View 32 v70,2013-06-02 21:44:00,
2013-06-02 14:49:00,61.0,43.7,29.75,SW,225,7.0,21.0,53,0.00,,,0.00,Weather View 32 v70,2013-06-02 21:49:00,
2013-06-02 14:54:00,62.0,39.2,29.75,WSW,247,0.0,21.0,43,0.00,,,0.00,Weather View 32 v70,2013-06-02 21:54:00,
2013-06-02 14:59:00,62.0,44.1,29.75,WSW,247,1.0,21.0,52,0.00,,,0.00,Weather View 32 v70,2013-06-02 21:59:00,
2013-06-02 15:04:00,61.0,-40.5,29.75,SW,225,14.0,21.0,1,0.00,,,0.00,Weather View 32 v70,2013-06-02 22:04:00,
2013-06-02 15:09:00,61.0,35.8,29.75,WSW,247,12.0,21.0,39,0.00,,,0.00,Weather View 32 v70,2013-06-02 22:09:00,
2013-06-02 15:14:00,61.0,35.8,29.75,WSW,247,5.0,24.0,39,0.00,,,0.00,Weather View 32 v70,2013-06-02 22:14:00,
2013-06-02 15:19:00,61.0,41.7,29.75,WSW,247,4.0,24.0,49,0.00,,,0.00,Weather View 32 v70,2013-06-02 22:19:00,
2013-06-02 15:24:00,61.0,41.7,29.75,SW,225,6.0,24.0,49,0.00,,,0.00,Weather View 32 v70,2013-06-02 22:24:00,
2013-06-02 15:29:00,60.0,36.8,29.75,WSW,247,12.0,24.0,42,0.00,,,0.00,Weather View 32 v70,2013-06-02 22:29:00,
2013-06-02 15:33:00,60.0,36.8,29.75,WSW,247,12.0,24.0,42,0.00,,,0.00,Weather View 32 v70,2013-06-02 22:33:00,
2013-06-02 15:39:00,61.0,-40.5,29.75,SW,225,8.0,24.0,1,0.00,,,0.00,Weather View 32 v70,2013-06-02 22:39:00,
2013-06-02 15:44:00,61.0,42.2,29.75,SW,225,3.0,24.0,50,0.00,,,0.00,Weather View 32 v70,2013-06-02 22:44:00,
2013-06-02 15:49:00,60.0,34.9,29.75,SW,225,12.0,24.0,39,0.00,,,0.00,Weather View 32 v70,2013-06-02 22:49:00,
2013-06-02 15:54:00,60.0,38.0,29.75,SW,225,1.0,24.0,44,0.00,,,0.00,Weather View 32 v70,2013-06-02 22:54:00,
2013-06-02 15:59:00,60.0,33.6,29.75,WSW,247,7.0,24.0,37,0.00,,,0.00,Weather View 32 v70,2013-06-02 22:59:00,
2013-06-02 16:04:00,60.0,36.2,29.75,SW,225,8.0,24.0,41,0.00,,,0.00,Weather View 32 v70,2013-06-02 23:04:00,
2013-06-02 16:09:00,60.0,33.6,29.75,SW,225,15.0,24.0,37,0.00,,,0.00,Weather View 32 v70,2013-06-02 23:09:00,
2013-06-02 16:14:00,60.0,-41.1,29.75,WSW,247,7.0,21.0,1,0.00,,,0.00,Weather View 32 v70,2013-06-02 23:14:00,
2013-06-02 16:19:00,60.0,33.6,29.75,SW,225,6.0,21.0,37,0.00,,,0.00,Weather View 32 v70,2013-06-02 23:19:00,
2013-06-02 16:24:00,60.0,32.9,29.75,WSW,247,6.0,21.0,36,0.00,,,0.00,Weather View 32 v70,2013-06-02 23:24:00,
2013-06-02 16:29:00,60.0,34.9,29.75,WSW,247,9.0,21.0,39,0.00,,,0.00,Weather View 32 v70,2013-06-02 23:29:00,
2013-06-02 16:34:00,60.0,34.9,29.75,WSW,247,9.0,21.0,39,0.00,,,0.00,Weather View 32 v70,2013-06-02 23:34:00,
2013-06-02 16:39:00,60.0,33.6,29.75,WSW,247,3.0,25.0,37,0.00,,,0.00,Weather View 32 v70,2013-06-02 23:39:00,
2013-06-02 16:44:00,61.0,33.1,29.74,WSW,247,9.0,25.0,35,0.00,,,0.00,Weather View 32 v70,2013-06-02 23:44:00,
2013-06-02 16:49:00,61.0,-40.5,29.74,WSW,247,2.0,25.0,1,0.00,,,0.00,Weather View 32 v70,2013-06-02 23:49:00,
2013-06-02 16:54:00,61.0,33.8,29.74,SW,225,8.0,25.0,36,0.00,,,0.00,Weather View 32 v70,2013-06-02 23:54:00,
2013-06-02 16:59:00,60.0,32.2,29.74,SW,225,6.0,25.0,35,0.00,,,0.00,Weather View 32 v70,2013-06-02 23:59:00,
2013-06-02 17:04:00,59.0,31.3,29.74,SW,225,13.0,25.0,35,0.00,,,0.00,Weather View 32 v70,2013-06-03 00:04:00,
2013-06-02 17:09:00,60.0,32.2,29.74,WSW,247,9.0,25.0,35,0.00,,,0.00,Weather View 32 v70,2013-06-03 00:09:00,
2013-06-02 17:14:00,60.0,32.2,29.74,SW,225,1.0,25.0,35,0.00,,,0.00,Weather View 32 v70,2013-06-03 00:14:00,
2013-06-02 17:19:00,60.0,32.2,29.73,WSW,247,0.0,25.0,35,0.00,,,0.00,Weather View 32 v70,2013-06-03 00:19:00,
2013-06-02 17:24:00,60.0,-41.1,29.73,SW,225,12.0,25.0,1,0.00,,,0.00,Weather View 32 v70,2013-06-03 00:24:00,
2013-06-02 17:29:00,60.0,32.2,29.73,SW,225,10.0,25.0,35,0.00,,,0.00,Weather View 32 v70,2013-06-03 00:29:00,
2013-06-02 17:34:00,60.0,32.2,29.74,SW,225,4.0,25.0,35,0.00,,,0.00,Weather View 32 v70,2013-06-03 00:34:00,
2013-06-02 17:44:00,59.0,31.3,29.75,SW,225,2.0,23.0,35,0.00,,,0.00,Weather View 32 v70,2013-06-03 00:44:00,
2013-06-02 17:49:00,59.0,31.3,29.74,SW,225,6.0,23.0,35,0.00,,,0.00,Weather View 32 v70,2013-06-03 00:49:00,
2013-06-02 17:54:00,59.0,31.3,29.75,WSW,247,12.0,23.0,35,0.00,,,0.00,Weather View 32 v70,2013-06-03 00:54:00,
2013-06-02 17:59:00,59.0,-41.7,29.74,SW,225,7.0,20.0,1,0.00,,,0.00,Weather View 32 v70,2013-06-03 00:59:00,
2013-06-02 18:04:00,59.0,31.3,29.74,SW,225,0.0,20.0,35,0.00,,,0.00,Weather View 32 v70,2013-06-03 01:04:00,
2013-06-02 18:09:00,60.0,32.9,29.74,SW,225,0.0,20.0,36,0.00,,,0.00,Weather View 32 v70,2013-06-03 01:09:00,
2013-06-02 18:14:00,60.0,32.2,29.73,SW,225,3.0,20.0,35,0.00,,,0.00,Weather View 32 v70,2013-06-03 01:14:00,
2013-06-02 18:19:00,60.0,32.9,29.73,SW,225,7.0,20.0,36,0.00,,,0.00,Weather View 32 v70,2013-06-03 01:19:00,
2013-06-02 18:24:00,59.0,32.0,29.73,SW,225,4.0,20.0,36,0.00,,,0.00,Weather View 32 v70,2013-06-03 01:24:00,
2013-06-02 18:29:00,59.0,31.3,29.74,WSW,247,7.0,20.0,35,0.00,,,0.00,Weather View 32 v70,2013-06-03 01:29:00,
2013-06-02 18:35:00,59.0,-41.7,29.74,SW,225,0.0,19.0,1,0.00,,,0.00,Weather View 32 v70,2013-06-03 01:35:00,
2013-06-02 18:44:00,59.0,32.0,29.74,WSW,247,2.0,19.0,36,0.00,,,0.00,Weather View 32 v70,2013-06-03 01:44:00,
2013-06-02 18:49:00,58.0,33.8,29.75,SW,225,3.0,19.0,40,0.00,,,0.00,Weather View 32 v70,2013-06-03 01:49:00,
2013-06-02 18:54:00,58.0,-42.3,29.74,SW,225,6.0,19.0,1,0.00,,,0.00,Weather View 32 v70,2013-06-03 01:54:00,
2013-06-02 18:59:00,58.0,34.4,29.74,SW,225,6.0,19.0,41,0.00,,,0.00,Weather View 32 v70,2013-06-03 01:59:00,
2013-06-02 19:04:00,58.0,33.8,29.74,SW,225,6.0,19.0,40,0.00,,,0.00,Weather View 32 v70,2013-06-03 02:04:00,
2013-06-02 19:09:00,58.0,-42.3,29.74,SW,225,8.0,19.0,1,0.00,,,0.00,Weather View 32 v70,2013-06-03 02:09:00,
2013-06-02 19:14:00,58.0,35.6,29.74,SW,225,10.0,19.0,43,0.00,,,0.00,Weather View 32 v70,2013-06-03 02:14:00,
2013-06-02 19:19:00,57.0,39.5,29.75,SW,225,8.0,19.0,52,0.00,,,0.00,Weather View 32 v70,2013-06-03 02:19:00,
2013-06-02 19:24:00,56.0,39.1,29.75,SW,225,1.0,19.0,53,0.00,,,0.00,Weather View 32 v70,2013-06-03 02:24:00,
2013-06-02 19:29:00,55.0,39.1,29.75,SW,225,3.0,20.0,55,0.00,,,0.00,Weather View 32 v70,2013-06-03 02:29:00,
2013-06-02 19:34:00,55.0,40.0,29.76,SW,225,3.0,20.0,57,0.00,,,0.00,Weather View 32 v70,2013-06-03 02:34:00,
2013-06-02 19:35:00,55.0,40.0,29.76,SW,225,3.0,20.0,57,0.00,,,0.00,Weather View 32 v70,2013-06-03 02:35:00,
2013-06-02 19:39:00,55.0,40.0,29.76,SW,225,4.0,20.0,57,0.00,,,0.00,Weather View 32 v70,2013-06-03 02:39:00,
2013-06-02 19:44:00,54.0,-44.7,29.77,SW,225,10.0,20.0,1,0.00,,,0.00,Weather View 32 v70,2013-06-03 02:44:00,
2013-06-02 19:49:00,54.0,39.5,29.77,SW,225,9.0,20.0,58,0.00,,,0.00,Weather View 32 v70,2013-06-03 02:49:00,
2013-06-02 19:54:00,54.0,39.5,29.76,SW,225,4.0,20.0,58,0.00,,,0.00,Weather View 32 v70,2013-06-03 02:54:00,
2013-06-02 19:59:00,53.0,39.0,29.76,SW,225,13.0,20.0,59,0.00,,,0.00,Weather View 32 v70,2013-06-03 02:59:00,
2013-06-02 20:04:00,53.0,39.5,29.76,SW,225,0.0,20.0,60,0.00,,,0.00,Weather View 32 v70,2013-06-03 03:04:00,
2013-06-02 20:09:00,53.0,39.9,29.77,SW,225,12.0,20.0,61,0.00,,,0.00,Weather View 32 v70,2013-06-03 03:09:00,
2013-06-02 20:14:00,53.0,39.9,29.76,SW,225,9.0,20.0,61,0.00,,,0.00,Weather View 32 v70,2013-06-03 03:14:00,
2013-06-02 20:19:00,53.0,36.3,29.76,SW,225,11.0,20.0,53,0.00,,,0.00,Weather View 32 v70,2013-06-03 03:19:00,
2013-06-02 20:24:00,53.0,40.3,29.76,SW,225,7.0,20.0,62,0.00,,,0.00,Weather View 32 v70,2013-06-03 03:24:00,
2013-06-02 20:29:00,52.0,39.8,29.76,SW,225,8.0,20.0,63,0.00,,,0.00,Weather View 32 v70,2013-06-03 03:29:00,
2013-06-02 20:34:00,52.0,39.8,29.76,SW,225,3.0,20.0,63,0.00,,,0.00,Weather View 32 v70,2013-06-03 03:34:00,
2013-06-02 20:36:00,52.0,39.8,29.76,SW,225,3.0,20.0,63,0.00,,,0.00,Weather View 32 v70,2013-06-03 03:36:00,
2013-06-02 20:39:00,52.0,40.2,29.76,SW,225,0.0,20.0,64,0.00,,,0.00,Weather View 32 v70,2013-06-03 03:39:00,
2013-06-02 20:44:00,52.0,40.2,29.77,SW,225,3.0,20.0,64,0.00,,,0.00,Weather View 32 v70,2013-06-03 03:44:00,
2013-06-02 20:49:00,52.0,41.0,29.77,SW,225,4.0,20.0,66,0.00,,,0.00,Weather View 32 v70,2013-06-03 03:49:00,
2013-06-02 20:54:00,52.0,42.1,29.77,SW,225,13.0,20.0,69,0.00,,,0.00,Weather View 32 v70,2013-06-03 03:54:00,
2013-06-02 20:59:00,52.0,41.4,29.77,SW,225,16.0,20.0,67,0.00,,,0.00,Weather View 32 v70,2013-06-03 03:59:00,
2013-06-02 21:04:00,52.0,41.7,29.77,SW,225,2.0,20.0,68,0.00,,,0.00,Weather View 32 v70,2013-06-03 04:04:00,
2013-06-02 21:09:00,52.0,42.1,29.77,SW,225,0.0,20.0,69,0.00,,,0.00,Weather View 32 v70,2013-06-03 04:09:00,
2013-06-02 21:14:00,52.0,42.5,29.77,SW,225,7.0,19.0,70,0.00,,,0.00,Weather View 32 v70,2013-06-03 04:14:00,
2013-06-02 21:19:00,52.0,42.5,29.77,SW,225,4.0,19.0,70,0.00,,,0.00,Weather View 32 v70,2013-06-03 04:19:00,
2013-06-02 21:24:00,52.0,42.9,29.78,SW,225,7.0,19.0,71,0.00,,,0.00,Weather View 32 v70,2013-06-03 04:24:00,
2013-06-02 21:29:00,52.0,44.0,29.78,SW,225,8.0,19.0,74,0.00,,,0.00,Weather View 32 v70,2013-06-03 04:29:00,
2013-06-02 21:34:00,52.0,43.2,29.78,SW,225,8.0,19.0,72,0.00,,,0.00,Weather View 32 v70,2013-06-03 04:34:00,
2013-06-02 21:36:00,52.0,43.2,29.78,SW,225,8.0,19.0,72,0.00,,,0.00,Weather View 32 v70,2013-06-03 04:36:00,
2013-06-02 21:39:00,52.0,43.2,29.78,SW,225,7.0,19.0,72,0.00,,,0.00,Weather View 32 v70,2013-06-03 04:39:00,
2013-06-02 21:44:00,52.0,43.6,29.78,SW,225,16.0,21.0,73,0.00,,,0.00,Weather View 32 v70,2013-06-03 04:44:00,
2013-06-02 21:49:00,52.0,44.0,29.78,SW,225,5.0,21.0,74,0.00,,,0.00,Weather View 32 v70,2013-06-03 04:49:00,
2013-06-02 21:54:00,51.0,43.0,29.77,SW,225,9.0,21.0,74,0.00,,,0.00,Weather View 32 v70,2013-06-03 04:54:00,
2013-06-02 21:59:00,51.0,43.0,29.78,SW,225,12.0,22.0,74,0.00,,,0.00,Weather View 32 v70,2013-06-03 04:59:00,
2013-06-02 22:04:00,51.0,44.0,29.79,SW,225,9.0,22.0,77,0.00,,,0.00,Weather View 32 v70,2013-06-03 05:04:00,
2013-06-02 22:09:00,51.0,43.3,29.79,SW,225,9.0,22.0,75,0.00,,,0.00,Weather View 32 v70,2013-06-03 05:09:00,
2013-06-02 22:14:00,51.0,43.7,29.79,SW,225,10.0,22.0,76,0.00,,,0.00,Weather View 32 v70,2013-06-03 05:14:00,
2013-06-02 22:19:00,51.0,44.0,29.79,SW,225,11.0,22.0,77,0.00,,,0.00,Weather View 32 v70,2013-06-03 05:19:00,
2013-06-02 22:24:00,51.0,44.0,29.79,SW,225,11.0,26.0,77,0.00,,,0.00,Weather View 32 v70,2013-06-03 05:24:00,
2013-06-02 22:29:00,51.0,44.0,29.79,SW,225,15.0,26.0,77,0.00,,,0.00,Weather View 32 v70,2013-06-03 05:29:00,
2013-06-02 22:34:00,51.0,44.0,29.79,SW,225,12.0,26.0,77,0.00,,,0.00,Weather View 32 v70,2013-06-03 05:34:00,
2013-06-02 22:39:00,51.0,44.7,29.79,SW,225,12.0,26.0,79,0.00,,,0.00,Weather View 32 v70,2013-06-03 05:39:00,
2013-06-02 22:44:00,51.0,44.0,29.79,SW,225,6.0,26.0,77,0.00,,,0.00,Weather View 32 v70,2013-06-03 05:44:00,
2013-06-02 22:49:00,51.0,44.0,29.79,SW,225,4.0,26.0,77,0.00,,,0.00,Weather View 32 v70,2013-06-03 05:49:00,
2013-06-02 22:54:00,51.0,44.0,29.79,SW,225,15.0,26.0,77,0.00,,,0.00,Weather View 32 v70,2013-06-03 05:54:00,
2013-06-02 22:59:00,51.0,44.0,29.79,SW,225,5.0,26.0,77,0.00,,,0.00,Weather View 32 v70,2013-06-03 05:59:00,
2013-06-02 23:04:00,51.0,44.0,29.79,SW,225,5.0,26.0,77,0.00,,,0.00,Weather View 32 v70,2013-06-03 06:04:00,
2013-06-02 23:09:00,51.0,44.0,29.79,SW,225,6.0,26.0,77,0.00,,,0.00,Weather View 32 v70,2013-06-03 06:09:00,
2013-06-02 23:14:00,51.0,44.7,29.79,SW,225,11.0,26.0,79,0.00,,,0.00,Weather View 32 v70,2013-06-03 06:14:00,
2013-06-02 23:19:00,51.0,44.0,29.79,SW,225,7.0,26.0,77,0.00,,,0.00,Weather View 32 v70,2013-06-03 06:19:00,
2013-06-02 23:24:00,51.0,44.0,29.79,SW,225,10.0,26.0,77,0.00,,,0.00,Weather View 32 v70,2013-06-03 06:24:00,
2013-06-02 23:29:00,51.0,44.0,29.79,SW,225,5.0,23.0,77,0.00,,,0.00,Weather View 32 v70,2013-06-03 06:29:00,
2013-06-02 23:38:00,51.0,44.0,29.79,SW,225,10.0,20.0,77,0.00,,,0.00,Weather View 32 v70,2013-06-03 06:38:00,
2013-06-02 23:39:00,51.0,44.0,29.79,SW,225,6.0,20.0,77,0.00,,,0.00,Weather View 32 v70,2013-06-03 06:39:00,
2013-06-02 23:44:00,51.0,44.0,29.79,SW,225,10.0,20.0,77,0.00,,,0.00,Weather View 32 v70,2013-06-03 06:44:00,
2013-06-02 23:49:00,51.0,44.7,29.79,SW,225,3.0,20.0,79,0.00,,,0.00,Weather View 32 v70,2013-06-03 06:49:00,
2013-06-02 23:54:00,51.0,44.0,29.79,SW,225,5.0,20.0,77,0.00,,,0.00,Weather View 32 v70,2013-06-03 06:54:00,
2013-06-02 23:59:00,51.0,44.0,29.79,SW,225,7.0,20.0,77,0.00,,,0.00,Weather View 32 v70,2013-06-03 06:59:00,